Regional Weather Roundup
Issued by NWS

Home | Current Version | Previous Version | Text Only | Print | Product List | Glossary Off
Versions: 1 2 3 4 5 6 7 8 9 10 11 12 13 14 15 16 17 18 19 20 21 22 23 24 25 26 27 28 29 30 31 32 33 34 35 36 37 38 39 40 41 42 43 44 45 46 47 48 49 50

000
ASUS45 KBOI 031610
RWRID

IDAHO REGIONAL WEATHER ROUNDUP
NATIONAL WEATHER SERVICE BOISE ID
1000 AM MDT THU SEP 03 2015

NOTE: "FAIR" INDICATES FEW OR NO CLOUDS BELOW 12000 FEET
WITH NO SIGNIFICANT WEATHER AND/OR OBSTRUCTIONS TO VISIBILITY

IDZ012-014-031700-
SOUTHWEST IDAHO


CITY           SKY/WX    TMP DP  RH WIND       PRES   REMARKS
BOISE          PTSUNNY   59  43  55 NW17      29.92S
CALDWELL       PTSUNNY   57  36  44 NW15      29.96S
MOUNTAIN HOME  CLOUDY    60  43  52 NW20      29.91S
$$

IDZ016-017-031700-
SOUTHCENTRAL IDAHO


CITY           SKY/WX    TMP DP  RH WIND       PRES   REMARKS
BURLEY         MOSUNNY   60  42  51 W8        29.93R
JEROME         PTSUNNY   58  41  53 SW13      29.94S
TWIN FALLS     MOSUNNY   63  38  39 SW12      29.94F
$$

IDZ019>023-031700-
SOUTHEAST IDAHO


CITY           SKY/WX    TMP DP  RH WIND       PRES   REMARKS
IDAHO FALLS    PTSUNNY   62  41  46 S15       29.93S
POCATELLO      SUNNY     66  39  37 SW16      29.94S
REXBURG        PTSUNNY   64  39  39 SW13G21   29.92R
$$

IDZ006-010-011-018-031-032-031700-
CENTRAL IDAHO MOUNTAINS


CITY           SKY/WX    TMP DP  RH WIND       PRES   REMARKS
MCCALL         LGT RAIN  47  43  86 VRB3      29.98S
HAILEY         PTSUNNY   59  43  55 SE8       29.96S
STANLEY          N/A     52  34  50 CALM      29.97F
SALMON         CLOUDY    59  43  55 CALM      29.88R
CHALLIS        CLOUDY    59  36  42 NW6       29.86S
$$

IDZ002-004-006-007-026-031700-
NORTHERN IDAHO


CITY           SKY/WX    TMP DP  RH WIND       PRES   REMARKS
LEWISTON       LGT RAIN  55  48  77 SE8       29.97R
LOWELL           N/A     55  52  89 CALM      29.98R
COEUR D`ALENE  SUNNY     55  37  50 SW5       29.96S
MULLAN PASS    CLOUDY    39  38  96 CALM      29.99R
$$


USA.gov is the U.S. government's official web portal to all federal, state and local government web resources and services.